Latest Coastal Weather Observations for Coconut Island

IDQ60701

Issued at 3:51 am EST Saturday 29 April 2017 (issued every 10 minutes, with the page automatically refreshed every 10 minutes)

About coastal observations | Map of coastal stations | Coastal observations for QLD | Marine services | Other Formats
Station Details ID: 027054 Name: COCONUT ISLAND Lat: -10.05 Lon: 143.07 Height: 3.5 m
Data from the previous 72 hours. | See also: Recent months at Coconut Island
Date/Time
EST
Temp
°C
Wind Pressure Rain since
9am
mm
Weather Cloud Vis
km
Sea
Height
m
Swell
Dir  Spd
kts
Gust
kts
hPa Trend Height
m
Period
s
Dir
29/03:30am 26.7 - - - 1010.6 - 0.0 - - - - - - -
29/03:00am 26.7 - - - 1010.7 - 0.0 - - - - - - -
29/02:30am 26.7 - - - 1010.7 - 0.0 - - - - - - -
29/02:00am 26.8 - - - 1010.7 - 0.0 - - - - - - -
29/01:30am 26.9 - - - 1010.9 - 0.0 - - - - - - -
29/01:00am 26.9 - - - 1011.2 - 0.0 - - - - - - -
29/12:30am 27.1 - - - 1011.5 - 0.0 - - - - - - -
29/12:00am 27.1 - - - 1011.9 - 0.0 - - - - - - -
 
Date/Time
EST
Temp
°C
Wind Pressure Rain since
9am
mm
Weather Cloud Vis
km
Sea
Height
m
Swell
Dir  Spd
kts
Gust
kts
hPa Trend Height
m
Period
s
Dir
28/11:30pm 27.1 - - - 1012.0 - 0.0 - - - - - - -
28/11:00pm 27.2 - - - 1011.9 - 0.0 - - - - - - -
28/10:30pm 27.2 SSE 3 5 1012.0 - 0.0 - - - - - - -
28/10:00pm 27.1 SSE 3 6 1012.0 - 0.0 - - - - - - -
28/09:30pm 27.2 SSE 4 6 1011.9 - 0.0 - - - - - - -
28/09:00pm 27.1 SSE 3 5 1011.8 - 0.0 - - - - - - -
28/08:30pm 27.1 SSE 3 5 1011.7 - 0.0 - - - - - - -
28/08:00pm 27.3 SSE 3 5 1011.3 - 0.0 - - - - - - -
28/07:30pm 27.3 SSE 2 3 1010.9 - 0.0 - - - - - - -
28/07:00pm 27.6 SSE 3 4 1010.5 - 0.0 - - - - - - -
28/06:30pm 27.8 SSE 2 5 1010.0 - 0.0 - - - - - - -
28/06:00pm 28.3 SSE 2 4 1009.5 - 0.0 - - - - - - -
28/05:30pm 29.3 SSE 2 4 1009.1 - 0.0 - - - - - - -
28/05:00pm 29.5 SSE 2 4 1008.8 - 0.0 - - - - - - -
28/04:30pm 30.5 SE 2 4 1008.6 - 0.0 - - - - - - -
28/04:00pm 30.8 SE 1 4 1008.5 - 0.0 - - - - - - -
28/03:30pm 30.9 SE 1 3 1008.6 - 0.0 - - - - - - -
28/03:00pm 30.4 CALM 0 2 1008.7 - 0.0 - - - - - - -
28/02:30pm 31.8 CALM 0 2 1009.1 - 0.0 - - - - - - -
28/02:00pm 31.8 CALM 0 2 1009.4 - 0.0 - - - - - - -
28/01:30pm 32.0 SE 1 3 1009.9 - 0.0 - - - - - - -
28/01:00pm 32.1 SE 2 5 1010.4 - 0.0 - - - - - - -
28/12:30pm 32.2 SE 1 5 1011.0 - 0.0 - - - - - - -
28/12:00pm 31.5 SE 2 5 1011.5 - 0.0 - - - - - - -
28/11:30am 31.2 ESE 2 5 1011.9 - 0.0 - - - - - - -
28/11:00am 31.0 ESE 3 6 1012.3 - 0.0 - - - - - - -
28/10:30am 30.1 ESE 3 7 1012.6 - 0.0 - - - - - - -
28/10:00am 29.8 ESE 2 6 1012.6 - 0.0 - - - - - - -
28/09:30am 28.2 E 4 9 1012.6 - 0.0 - - - - - - -
28/09:00am 29.7 ESE 2 7 1012.5 - 7.2 - - - - - - -
28/08:30am 27.8 CALM 0 3 1012.3 - 7.2 - - - - - - -
28/08:00am 27.6 SE 1 3 1011.9 - 7.2 - - - - - - -
28/07:30am 27.1 CALM 0 3 1011.4 - 7.2 - - - - - - -
28/07:00am 25.9 SE 1 5 1011.1 - 7.2 - - - - - - -
28/06:30am 25.8 CALM 0 4 1010.7 - 7.2 - - - - - - -
28/06:00am 25.7 CALM 0 2 1010.5 - 7.2 - - - - - - -
28/05:30am 25.8 CALM 0 4 1010.5 - 7.2 - - - - - - -
28/05:00am 25.8 CALM 0 2 1010.2 - 7.2 - - - - - - -
28/04:30am 26.0 CALM 0 3 1009.9 - 7.2 - - - - - - -
28/04:00am 26.1 SSE 1 6 1010.0 - 7.2 - - - - - - -
28/03:30am 26.2 SSE 1 4 1010.0 - 7.2 - - - - - - -
28/03:00am 26.2 SSE 1 3 1009.9 - 7.2 - - - - - - -
28/02:30am 26.3 SSE 2 4 1010.0 - 7.2 - - - - - - -
28/02:00am 26.3 SSE 2 5 1010.3 - 7.2 - - - - - - -
28/01:30am 26.4 SSE 3 5 1010.5 - 7.2 - - - - - - -
28/01:00am 26.5 SSE 3 5 1010.9 - 7.2 - - - - - - -
28/12:30am 26.7 SSE 3 5 1011.1 - 7.2 - - - - - - -
28/12:00am 26.6 SSE 3 5 1011.3 - 7.2 - - - - - - -
 
Date/Time
EST
Temp
°C
Wind Pressure Rain since
9am
mm
Weather Cloud Vis
km
Sea
Height
m
Swell
Dir  Spd
kts
Gust
kts
hPa Trend Height
m
Period
s
Dir
27/11:30pm 26.7 SSE 3 5 1011.4 - 7.2 - - - - - - -
27/11:00pm 26.8 SSE 3 5 1011.6 - 7.2 - - - - - - -
27/10:30pm 26.7 SSE 2 4 1011.6 - 7.2 - - - - - - -
27/10:00pm 26.8 SSE 2 5 1011.4 - 7.2 - - - - - - -
27/09:30pm 26.8 SSE 2 4 1011.3 - 7.2 - - - - - - -
27/09:00pm 26.9 SSE 2 4 1011.2 - 7.2 - - - - - - -
27/08:30pm 26.7 SSE 2 3 1010.9 - 7.2 - - - - - - -
27/08:00pm 26.6 SSE 1 2 1010.5 - 7.2 - - - - - - -
27/07:30pm 26.8 SSE 2 2 1010.1 - 7.2 - - - - - - -
27/07:00pm 27.1 SSE 2 4 1009.7 - 7.2 - - - - - - -
27/06:30pm 27.1 SSE 1 3 1009.3 - 7.2 - - - - - - -
27/06:00pm 27.4 SSE 2 3 1009.1 - 7.2 - - - - - - -
27/05:30pm 28.0 SSE 1 2 1008.7 - 7.2 - - - - - - -
27/05:00pm 28.2 CALM 0 1 1008.3 - 7.2 - - - - - - -
27/04:30pm 28.6 CALM 0 1 1008.3 - 7.2 - - - - - - -
27/04:00pm 28.8 CALM 0 1 1008.3 - 7.2 - - - - - - -
27/03:30pm 29.0 CALM 0 0 1008.5 - 7.2 - - - - - - -
27/03:00pm 29.1 CALM 0 1 1008.6 - 7.2 - - - - - - -
27/02:30pm 29.2 CALM 0 1 1009.0 - 7.2 - - - - - - -
27/02:00pm 29.5 SE 1 3 1009.2 - 7.2 - - - - - - -
27/01:30pm 29.5 CALM 0 2 1009.7 - 7.2 - - - - - - -
27/01:00pm 29.9 SE 2 7 1010.0 - 7.0 - - - - - - -
27/12:30pm 28.8 SE 1 4 1010.5 - 7.0 - - - - - - -
27/12:00pm 28.5 SE 3 9 1011.0 - 7.0 - - - - - - -
27/11:30am 28.5 SE 3 8 1011.5 - 7.0 - - - - - - -
27/11:00am 27.1 ESE 5 9 1011.9 - 7.0 - - - - - - -
27/10:30am 26.7 CALM 0 3 1012.1 - 6.8 - - - - - - -
27/10:00am 26.3 SE 3 8 1012.4 - 2.8 - - - - - - -
27/09:30am 26.6 E 5 9 1012.3 - 0.8 - - - - - - -
27/09:00am 28.6 SE 2 7 1012.0 - - - - - - - - -
27/08:30am 27.4 SE 1 7 1011.6 - - - - - - - - -
27/08:00am 27.4 SSE 1 6 1011.4 - - - - - - - - -
27/07:30am 26.8 SE 2 7 1011.1 - - - - - - - - -
27/07:00am 26.1 SE 2 7 1010.5 - - - - - - - - -
27/06:30am 26.1 SE 1 5 1010.2 - - - - - - - - -
27/06:00am 25.9 SE 2 5 1009.8 - - Rain - - - - - -
27/05:30am 26.5 SE 1 6 1009.5 - - - - - - - - -
27/05:00am 26.4 SE 2 7 1009.3 - - - - - - - - -
27/04:30am 26.5 SE 2 7 1009.1 - - - - - - - - -
27/04:00am 26.6 SE 2 5 1009.0 - - - - - - - - -
27/03:30am 26.7 SE 4 9 1009.0 - - - - - - - - -
27/03:00am 26.6 SSE 1 5 1009.1 - 0.0 - - - - - - -
27/02:30am 26.7 SE 4 10 1009.2 - - - - - - - - -
27/02:00am 26.9 SSE 3 6 1009.6 - - - - - - - - -
27/01:30am 26.8 SE 2 6 1010.4 - - - - - - - - -
27/01:00am 26.8 SE 2 7 1010.7 - - - - - - - - -
27/12:30am 26.8 SSE 2 7 1010.8 - - - - - - - - -
27/12:00am 26.8 SSE 2 5 1010.8 - - - - - - - - -
 
Date/Time
EST
Temp
°C
Wind Pressure Rain since
9am
mm
Weather Cloud Vis
km
Sea
Height
m
Swell
Dir  Spd
kts
Gust
kts
hPa Trend Height
m
Period
s
Dir
26/11:30pm 26.7 SSE 2 9 1011.1 - - - - - - - - -
26/11:00pm 26.8 SSE 3 7 1011.3 - - - - - - - - -
26/10:30pm 26.8 SSE 2 8 1011.4 - - - - - - - - -
26/10:00pm 26.5 SSE 3 8 1011.5 - - - - - - - - -
26/09:30pm 26.5 SSE 3 7 1011.3 - - - - - - - - -
26/09:00pm 26.6 SSE 3 6 1011.1 - - Recent precip. - - - - - -
26/08:30pm 26.5 SSE 3 5 1010.7 - - - - - - - - -
26/08:00pm 26.3 SSE 2 5 1010.1 - - - - - - - - -
26/07:30pm 26.2 SSE 1 3 1009.4 - - - - - - - - -
26/07:00pm 26.0 SSE 2 7 1009.3 - - - - - - - - -
26/06:30pm 26.3 SSE 2 5 1008.9 - - - - - - - - -
26/06:00pm 26.3 CALM 0 2 1008.7 - - Recent precip. - - - - - -
26/05:30pm 26.0 SSE 1 3 1008.2 - - - - - - - - -
26/05:00pm 26.4 SSE 1 5 1007.9 - - - - - - - - -
26/04:30pm 26.4 SE 1 5 1007.9 - - - - - - - - -
26/01:00pm 27.6 SE 3 9 1009.4 - 3.2 - - - - - - -
26/12:30pm 31.2 ESE 2 5 1009.7 - 0.0 - - - - - - -
26/12:00pm 29.6 ESE 4 7 1010.5 - 0.0 - - - - - - -
26/11:30am 30.1 ESE 5 11 1010.4 - 0.0 - - - - - - -
26/11:00am 30.2 ESE 6 11 1010.3 - 0.0 - - - - - - -
26/10:30am 29.0 ESE 6 11 1010.5 - 0.0 - - - - - - -
26/10:00am 29.3 ESE 7 13 1010.8 - 0.0 - - - - - - -
26/09:30am 28.2 ESE 7 13 1010.8 - 0.0 - - - - - - -
26/09:00am 27.4 ESE 6 10 1010.9 - 31.2 - - - - - - -
26/08:30am 27.2 E 5 10 1010.8 - 31.2 - - - - - - -
26/08:00am 26.4 E 5 9 1010.6 - 31.2 - - - - - - -
26/07:30am 25.6 E 7 11 1010.2 - 31.2 - - - - - - -
26/07:00am 25.8 E 6 12 1010.0 - 31.0 - - - - - - -
26/06:30am 26.5 E 4 7 1009.9 - 26.4 - - - - - - -
26/06:00am 26.3 E 5 9 1009.5 - 26.4 - - - - - - -
26/05:30am 26.1 ESE 5 7 1009.3 - 26.4 - - - - - - -
26/05:00am 25.7 ESE 4 9 1009.2 - 26.4 - - - - - - -
26/04:30am 25.2 ESE 6 10 1009.2 - 26.4 - - - - - - -
26/04:00am 25.9 E 3 6 1009.0 - 25.8 - - - - - - -

Other Formats:

Comma delimited format used in spreadsheet applications
http://www.bom.gov.au/fwo/IDQ60701/IDQ60701.94182.axf

JavaScript Object Notation format (JSON) in row-major order
http://www.bom.gov.au/fwo/IDQ60701/IDQ60701.94182.json